EW5123 Weather Reports


Display with metric or nautical units.
time (UTC)temp
F
wind
direction
speed
MPH
gust
MPH
rain 1hr
in
rain 24hr
in
rain mn
in
humidity
%
barometer
mb
20260508213301 66 0 2.0 7.0 0.00 0.00 0.00 39 979.6
20260508212801 66 27 2.0 7.0 0.00 0.00 0.00 39 979.8
20260508212301 67 16 1.0 7.0 0.00 0.00 0.00 36 979.8
20260508211801 67 326 1.0 4.0 0.00 0.00 0.00 39 979.8
20260508211301 67 332 1.0 5.0 0.00 0.00 0.00 40 979.9
20260508210801 66 297 1.0 8.0 0.00 0.00 0.00 40 979.9
20260508210301 65 5 2.0 8.0 0.00 0.00 0.00 40 980.0
20260508205803 65 344 3.0 9.0 0.00 0.00 0.00 39 980.0
20260508205759 65 4 3.0 8.0 0.00 0.00 0.00 39 980.0
20260508204757 65 340 3.0 9.0 0.00 0.00 0.00 38 980.0
20260508204257 65 7 3.0 9.0 0.00 0.00 0.00 39 979.9
20260508203757 65 349 3.0 10.0 0.00 0.00 0.00 38 980.0
20260508203257 66 356 2.0 10.0 0.00 0.00 0.00 37 980.2
20260508202757 67 16 1.0 7.0 0.00 0.00 0.00 37 980.1
20260508202258 66 151 1.0 7.0 0.00 0.00 0.00 39 980.2
20260508201757 65 352 2.0 8.0 0.00 0.00 0.00 40 980.2
20260508201257 65 335 2.0 9.0 0.00 0.00 0.00 39 980.1
20260508200757 65 307 2.0 9.0 0.00 0.00 0.00 41 980.2
20260508200257 65 342 2.0 8.0 0.00 0.00 0.00 39 980.2
20260508195754 65 230 4.0 11.0 0.00 0.00 0.00 41 980.4
20260508195255 64 13 4.0 11.0 0.00 0.00 0.00 38 980.4
20260508194755 64 340 3.0 11.0 0.00 0.00 0.00 40 980.4
20260508194255 65 359 3.0 11.0 0.00 0.00 0.00 36 980.4
20260508193755 65 128 3.0 10.0 0.00 0.00 0.00 37 980.4
20260508193255 65 207 3.0 8.0 0.00 0.00 0.00 39 980.4
20260508192254 63 330 4.0 10.0 0.00 0.00 0.00 40 980.5
20260508191757 64 334 4.0 12.0 0.00 0.00 0.00 39 980.6
20260508191753 64 329 4.0 11.0 0.00 0.00 0.00 37 980.5
20260508191359 64 4 3.0 12.0 0.00 0.00 0.00 37 980.5
20260508190253 64 342 2.0 8.0 0.00 0.00 0.00 40 980.6
20260508185753 64 321 3.0 9.0 0.00 0.00 0.00 38 980.6
20260508185253 64 322 3.0 9.0 0.00 0.00 0.00 39 980.6
20260508184753 63 349 3.0 8.0 0.00 0.00 0.00 38 980.6
20260508184253 63 316 2.0 8.0 0.00 0.00 0.00 39 980.8
20260508183750 62 333 1.0 7.0 0.00 0.00 0.00 40 980.8
20260508183250 62 331 3.0 10.0 0.00 0.00 0.00 42 980.9
20260508182748 62 2 5.0 10.0 0.00 0.00 0.00 43 981.1
20260508182249 62 352 3.0 9.0 0.00 0.00 0.00 43 980.9
20260508181749 62 304 3.0 9.0 0.00 0.00 0.00 39 981.1
20260508181253 64 333 0.0 6.0 0.00 0.00 0.00 40 981.2
20260508181249 62 312 3.0 9.0 0.00 0.00 0.00 39 981.2
20260508180248 63 60 1.0 4.0 0.00 0.00 0.00 45 981.3
20260508175749 62 172 1.0 4.0 0.00 0.00 0.00 43 981.3
20260508175249 62 157 0.0 4.0 0.00 0.00 0.00 43 981.4
20260508174749 62 139 0.0 3.0 0.00 0.00 0.00 44 981.4
20260508174248 62 211 0.0 3.0 0.00 0.00 0.00 44 981.4
20260508173748 62 326 0.0 3.0 0.00 0.00 0.00 42 981.5
20260508173248 61 153 0.0 5.0 0.00 0.00 0.00 46 981.5
20260508172750 60 149 1.0 5.0 0.00 0.00 0.00 47 981.7
20260508172253 60 346 0.0 3.0 0.00 0.00 0.00 48 981.5
20260508172249 59 254 1.0 4.0 0.00 0.00 0.00 46 981.5
20260508171249 60 214 0.0 3.0 0.00 0.00 0.00 47 981.7
20260508170748 58 287 0.0 2.0 0.00 0.00 0.00 52 981.7
20260508170253 56 327 1.0 5.0 0.00 0.00 0.00 53 981.8
20260508170249 57 28 1.0 4.0 0.00 0.00 0.00 52 981.8
20260508165249 56 268 1.0 5.0 0.00 0.00 0.00 51 981.8
20260508164749 57 29 0.0 4.0 0.00 0.00 0.00 51 981.9
20260508164249 57 198 0.0 3.0 0.00 0.00 0.00 54 981.9
20260508163749 56 304 0.0 3.0 0.00 0.00 0.00 50 982.0
20260508163249 57 175 0.0 2.0 0.00 0.00 0.00 49 982.0
20260508162749 56 120 1.0 6.0 0.00 0.00 0.00 54 982.0
20260508162249 55 353 1.0 6.0 0.00 0.01 0.00 55 982.1
20260508161748 54 340 1.0 4.0 0.00 0.01 0.00 58 982.0
20260508161249 54 322 1.0 4.0 0.00 0.01 0.00 56 982.0
20260508160749 54 203 1.0 4.0 0.00 0.02 0.00 59 982.1
20260508160253 53 189 1.0 4.0 0.00 0.02 0.00 60 982.1
20260508160248 53 285 1.0 4.0 0.00 0.02 0.00 61 982.1
20260508155248 53 304 1.0 4.0 0.00 0.03 0.00 60 982.1
20260508154749 53 219 1.0 5.0 0.00 0.03 0.00 63 982.2
20260508154253 51 185 1.0 3.0 0.00 0.03 0.00 67 982.2
20260508154248 52 181 1.0 5.0 0.00 0.03 0.00 65 982.2
20260508153248 51 294 0.0 3.0 0.00 0.03 0.00 67 982.5
20260508152749 51 182 1.0 4.0 0.00 0.03 0.00 68 982.5
20260508152248 50 191 2.0 4.0 0.00 0.03 0.00 71 982.5
20260508151748 50 265 1.0 4.0 0.00 0.03 0.00 72 982.5
20260508151248 49 200 1.0 4.0 0.00 0.03 0.00 72 982.5
20260508150748 49 244 1.0 4.0 0.00 0.03 0.00 72 982.6
20260508150251 49 188 1.0 4.0 0.00 0.03 0.00 76 982.6
20260508150247 48 158 0.0 3.0 0.00 0.03 0.00 76 982.7
20260508145246 47 200 0.0 2.0 0.00 0.03 0.00 78 982.7
20260508144751 47 262 0.0 3.0 0.00 0.03 0.00 77 983.0
20260508144747 47 5 0.0 3.0 0.00 0.03 0.00 77 982.8
20260508144352 47 333 0.0 3.0 0.00 0.03 0.00 78 983.0
20260508143245 46 323 0.0 3.0 0.00 0.03 0.00 81 982.8
20260508142745 46 283 0.0 1.0 0.00 0.03 0.00 83 982.8
20260508142249 44 317 0.0 2.0 0.00 0.03 0.00 83 983.0
20260508142245 45 192 0.0 2.0 0.00 0.03 0.00 82 983.0
20260508141245 44 217 0.0 1.0 0.00 0.03 0.00 84 983.0
20260508140744 44 229 0.0 1.0 0.00 0.03 0.00 84 983.0
20260508140244 43 323 0.0 1.0 0.00 0.03 0.00 85 983.0
20260508135745 43 342 0.0 1.0 0.00 0.03 0.00 86 983.0
20260508135246 42 205 0.0 2.0 0.00 0.03 0.00 86 983.0
20260508135242 43 291 0.0 1.0 0.00 0.03 0.00 86 983.0
20260508134244 42 0 0.0 2.0 0.00 0.03 0.00 86 982.8
20260508134240 42 347 0.0 2.0 0.00 0.03 0.00 87 983.0
20260508133240 42 308 0.0 2.0 0.00 0.03 0.00 87 982.8
20260508132740 42 1 0.0 1.0 0.00 0.03 0.00 87 983.0
20260508132241 41 340 0.0 3.0 0.00 0.03 0.00 88 982.8
20260508131740 41 359 0.0 4.0 0.00 0.03 0.00 88 982.8
20260508131347 39 319 0.0 2.0 0.00 0.03 0.00 88 982.5
20260508131244 40 335 0.0 3.0 0.00 0.03 0.00 88 982.6
20260508131240 40 296 0.0 4.0 0.00 0.03 0.00 88 982.7
20260508125744 38 148 0.0 0.0 0.00 0.03 0.00 89 982.2
20260508125740 38 13 0.0 2.0 0.00 0.03 0.00 89 982.4
20260508124738 37 148 0.0 0.0 0.00 0.03 0.00 88 981.9
20260508124238 37 148 0.0 0.0 0.00 0.03 0.00 89 981.5
20260508123738 36 206 0.0 0.0 0.00 0.03 0.00 87 981.7
20260508123238 37 206 0.0 0.0 0.00 0.03 0.00 87 981.5
20260508122738 37 206 0.0 0.0 0.00 0.03 0.00 86 981.5
20260508122240 37 206 0.0 0.0 0.00 0.03 0.00 86 981.2
20260508121738 37 207 0.0 0.0 0.00 0.03 0.00 86 981.2
20260508121238 38 207 0.0 0.0 0.00 0.03 0.00 87 981.1
20260508120742 37 207 0.0 0.0 0.00 0.03 0.00 86 980.9
20260508120738 37 207 0.0 0.0 0.00 0.03 0.00 87 980.9
20260508120237 37 206 0.0 0.0 0.00 0.03 0.00 85 980.7
20260508115236 38 199 0.0 1.0 0.00 0.03 0.00 85 980.7
20260508114735 38 330 0.0 1.0 0.00 0.03 0.00 85 980.6
20260508114241 39 351 0.0 3.0 0.00 0.03 0.00 83 980.6
20260508114236 38 205 1.0 8.0 0.00 0.03 0.00 84 980.6
20260508113736 38 348 1.0 8.0 0.00 0.03 0.00 82 980.5
20260508112736 39 168 0.0 2.0 0.00 0.03 0.00 84 980.1
20260508112236 38 219 0.0 1.0 0.00 0.03 0.00 85 980.1
20260508111736 38 213 0.0 0.0 0.00 0.03 0.00 83 980.1
20260508111235 38 274 0.0 1.0 0.00 0.03 0.00 83 980.1
20260508110734 39 274 0.0 2.0 0.00 0.03 0.00 83 980.2
20260508110234 39 213 0.0 2.0 0.00 0.03 0.00 86 980.2
20260508105735 38 259 0.0 1.0 0.00 0.03 0.00 88 980.2
20260508105234 37 197 0.0 0.0 0.00 0.03 0.00 85 980.4
20260508104738 37 188 0.0 0.0 0.00 0.03 0.00 85 980.1
20260508104734 37 197 0.0 0.0 0.00 0.03 0.00 84 980.2
20260508103734 37 188 0.0 0.0 0.00 0.03 0.00 84 980.1
20260508103233 38 188 0.0 0.0 0.00 0.03 0.00 84 980.1
20260508102734 38 219 0.0 0.0 0.00 0.03 0.00 83 980.2
20260508102234 38 219 0.0 0.0 0.00 0.03 0.00 83 980.0
20260508101732 39 219 0.0 0.0 0.00 0.03 0.00 83 980.1
20260508101231 39 219 0.0 0.0 0.00 0.03 0.00 83 980.1
20260508100731 39 219 0.0 0.0 0.00 0.03 0.00 84 980.0
20260508100236 38 208 0.0 0.0 0.00 0.03 0.00 84 980.0
20260508100232 38 219 0.0 0.0 0.00 0.03 0.00 85 980.0
20260508095232 38 3 0.0 0.0 0.00 0.03 0.00 84 979.9
20260508094732 38 3 0.0 0.0 0.00 0.03 0.00 83 979.8
20260508094229 38 3 0.0 0.0 0.00 0.03 0.00 84 979.8
20260508093731 38 3 0.0 0.0 0.00 0.03 0.00 83 979.8
20260508093230 39 3 0.0 0.0 0.00 0.03 0.00 83 979.8
20260508092729 39 3 0.0 0.0 0.00 0.03 0.00 82 979.9
20260508092227 39 3 0.0 0.0 0.00 0.03 0.00 82 979.9
20260508091727 39 3 0.0 0.0 0.00 0.03 0.00 82 979.9
20260508091227 40 3 0.0 0.0 0.00 0.03 0.00 81 980.0
20260508090727 40 3 0.0 0.0 0.00 0.03 0.00 80 980.0
20260508090227 40 3 0.0 0.0 0.00 0.03 0.00 79 980.0
20260508085728 41 3 0.0 1.0 0.00 0.03 0.00 79 980.0
20260508085228 41 3 0.0 1.0 0.00 0.03 0.00 79 980.1
20260508084726 41 156 0.0 0.0 0.00 0.03 0.00 79 979.9
20260508084225 41 157 0.0 0.0 0.00 0.03 0.00 79 979.9
20260508083726 41 157 0.0 0.0 0.00 0.03 0.00 78 980.0
20260508083225 42 156 0.0 0.0 0.00 0.03 0.00 78 980.0
20260508082724 42 157 0.0 0.0 0.00 0.03 0.00 77 980.1
20260508082223 42 157 0.0 0.0 0.00 0.03 0.00 78 980.1
20260508081723 42 157 0.0 0.0 0.00 0.03 0.00 78 980.2
20260508081223 42 156 0.0 0.0 0.00 0.03 0.00 77 980.4
20260508080729 44 156 0.0 1.0 0.00 0.03 0.00 74 980.5
20260508080725 42 157 0.0 1.0 0.00 0.03 0.00 76 980.5
20260508075723 44 135 0.0 1.0 0.00 0.03 0.00 74 980.6
20260508075224 45 199 0.0 1.0 0.00 0.03 0.00 73 980.7
20260508074724 44 219 0.0 1.0 0.00 0.03 0.00 73 980.8
20260508074226 43 170 0.0 1.0 0.00 0.03 0.00 75 980.9
20260508074222 44 178 0.0 0.0 0.00 0.03 0.00 75 981.1
20260508073721 43 170 0.0 0.0 0.00 0.03 0.00 76 980.9
20260508072721 43 170 0.0 2.0 0.00 0.03 0.00 75 980.8
20260508072222 43 220 0.0 2.0 0.00 0.03 0.00 74 980.8
20260508071722 43 129 0.0 1.0 0.00 0.03 0.00 74 980.7
20260508071221 43 165 0.0 0.0 0.00 0.03 0.00 73 981.1
20260508070721 44 165 0.0 1.0 0.00 0.03 0.00 72 980.9
20260508070221 44 165 0.0 1.0 0.00 0.03 0.00 72 980.8
20260508065721 45 346 0.0 1.0 0.00 0.03 0.00 70 980.9
20260508065221 45 346 0.0 1.0 0.00 0.03 0.00 70 981.2
20260508064721 45 332 0.0 1.0 0.00 0.03 0.00 70 980.9
20260508064226 45 212 0.0 0.0 0.00 0.03 0.00 69 980.7
20260508064222 45 208 0.0 0.0 0.00 0.03 0.00 70 980.7
20260508063221 46 158 0.0 0.0 0.00 0.03 0.00 68 980.7
20260508062721 46 162 0.0 0.0 0.00 0.03 0.00 66 980.7
20260508062221 47 162 0.0 0.0 0.00 0.03 0.00 65 980.7
20260508061719 47 162 0.0 0.0 0.00 0.03 0.00 64 980.7
20260508061218 47 162 0.0 0.0 0.00 0.03 0.00 64 980.7
20260508060717 47 302 0.0 1.0 0.00 0.03 0.00 64 980.8
20260508060217 47 266 0.0 1.0 0.00 0.03 0.00 64 980.7
20260508055717 47 150 0.0 1.0 0.00 0.03 0.03 63 980.5
20260508055223 47 150 0.0 3.0 0.00 0.03 0.03 64 980.4
20260508054714 47 197 0.0 3.0 0.00 0.03 0.03 63 980.2
20260508054214 48 159 0.0 1.0 0.00 0.03 0.03 63 980.4
20260508053714 48 159 0.0 1.0 0.00 0.03 0.03 62 980.2
20260508053214 48 345 0.0 1.0 0.00 0.03 0.03 61 980.5
20260508052712 48 345 0.0 1.0 0.00 0.03 0.03 61 980.6
20260508052211 48 274 0.0 0.0 0.00 0.03 0.03 62 980.5
20260508051710 49 172 0.0 0.0 0.00 0.03 0.03 60 980.4
20260508051210 49 172 0.0 0.0 0.00 0.03 0.03 58 980.2
20260508050714 49 172 0.0 0.0 0.00 0.03 0.03 58 980.1
20260508050710 49 172 0.0 0.0 0.00 0.03 0.03 58 980.0
20260508045711 50 170 0.0 0.0 0.00 0.03 0.03 58 980.1
20260508045210 49 173 0.0 0.0 0.00 0.03 0.03 57 980.1
20260508044710 50 168 0.0 0.0 0.00 0.03 0.03 58 980.0
20260508044214 51 168 0.0 0.0 0.00 0.03 0.03 55 980.1
20260508044210 50 169 0.0 0.0 0.00 0.03 0.03 58 980.1
20260508043210 51 168 0.0 1.0 0.00 0.03 0.03 53 980.0
20260508042713 52 174 0.0 1.0 0.00 0.03 0.03 55 980.1
20260508042709 51 179 0.0 1.0 0.00 0.03 0.03 54 980.1
20260508041708 52 218 0.0 0.0 0.00 0.03 0.03 53 980.1
20260508041208 53 218 0.0 0.0 0.00 0.03 0.03 50 980.1
20260508040708 53 218 0.0 0.0 0.00 0.03 0.03 49 980.1
20260508040212 54 202 0.0 0.0 0.00 0.03 0.03 50 980.1
20260508040208 54 207 0.0 0.0 0.00 0.03 0.03 49 980.1
20260508035208 54 206 0.0 1.0 0.00 0.03 0.03 47 980.2
20260508034709 54 192 0.0 1.0 0.00 0.03 0.03 48 980.1
20260508034208 55 206 0.0 1.0 0.00 0.03 0.03 46 980.2
20260508033706 55 212 0.0 1.0 0.00 0.03 0.03 45 980.1
20260508033211 56 263 2.0 6.0 0.00 0.03 0.03 43 980.1
20260508033206 56 121 1.0 6.0 0.00 0.03 0.03 44 979.9
20260508032206 56 2 3.0 8.0 0.00 0.03 0.03 43 980.1
20260508031706 57 11 3.0 8.0 0.00 0.03 0.03 41 980.2
20260508031206 57 345 2.0 8.0 0.00 0.03 0.03 39 980.4
20260508030706 57 328 1.0 5.0 0.00 0.03 0.03 38 980.1
20260508030206 58 347 0.0 5.0 0.00 0.03 0.03 37 979.9
20260508025706 58 344 0.0 1.0 0.00 0.03 0.03 37 979.6
20260508025205 58 20 0.0 3.0 0.00 0.03 0.03 37 979.6
20260508024704 58 307 0.0 3.0 0.00 0.03 0.03 37 979.5
20260508024210 58 321 0.0 2.0 0.00 0.03 0.03 35 979.4
20260508024204 58 321 0.0 2.0 0.00 0.03 0.03 35 979.4
20260508023811 58 330 0.0 3.0 0.00 0.03 0.03 36 979.2
20260508022704 58 323 0.0 3.0 0.00 0.03 0.03 36 979.2
20260508022202 59 309 0.0 2.0 0.00 0.03 0.03 35 979.2
20260508021702 59 329 0.0 4.0 0.00 0.03 0.03 34 979.1
20260508021202 58 307 0.0 4.0 0.00 0.03 0.03 34 979.1
20260508020711 59 291 0.0 0.0 0.00 0.03 0.03 35 978.9
20260508020702 58 334 0.0 1.0 0.00 0.03 0.03 35 978.9
20260508015704 59 214 0.0 0.0 0.00 0.03 0.03 35 978.7
20260508015700 59 274 0.0 0.0 0.00 0.03 0.03 35 978.8
20260508014700 59 314 0.0 0.0 0.00 0.03 0.03 35 978.7
20260508014204 60 314 0.0 1.0 0.00 0.03 0.03 34 978.5
20260508014159 59 314 0.0 1.0 0.00 0.03 0.03 34 978.5
20260508013806 60 253 0.0 1.0 0.00 0.03 0.03 33 978.5
20260508012700 60 12 0.0 2.0 0.00 0.03 0.03 33 978.5
20260508012201 61 12 0.0 2.0 0.00 0.03 0.03 32 978.5
20260508011659 61 321 0.0 1.0 0.00 0.03 0.03 30 978.5
20260508011157 61 301 0.0 2.0 0.00 0.03 0.03 30 978.3
20260508010656 62 219 0.0 6.0 0.00 0.03 0.03 32 978.3
20260508010202 63 319 0.0 2.0 0.00 0.04 0.03 28 978.3
20260508010156 62 324 0.0 6.0 0.00 0.03 0.03 29 978.3
20260508005656 62 290 0.0 2.0 0.00 0.03 0.03 29 978.3
20260508004655 62 255 0.0 2.0 0.00 0.04 0.03 28 978.3
20260508004156 62 255 0.0 2.0 0.00 0.04 0.03 29 978.2
20260508003656 61 8 0.0 1.0 0.00 0.04 0.03 29 978.2
20260508003156 62 280 0.0 1.0 0.00 0.05 0.03 28 978.2
20260508002656 62 277 0.0 1.0 0.00 0.05 0.03 28 978.2
20260508002200 62 8 1.0 5.0 0.00 0.06 0.03 28 978.2
20260508002156 62 343 0.0 3.0 0.00 0.05 0.03 27 978.3
20260508001155 62 338 1.0 5.0 0.00 0.06 0.03 28 978.2
20260508000656 63 330 2.0 8.0 0.00 0.06 0.03 27 978.3
20260508000155 63 320 3.0 8.0 0.00 0.07 0.03 28 978.3
20260507235655 64 321 2.0 6.0 0.00 0.07 0.03 27 978.3
20260507235155 64 328 2.0 6.0 0.00 0.07 0.03 29 978.3
20260507234656 64 305 2.0 7.0 0.00 0.08 0.03 26 978.3
20260507234155 65 311 2.0 7.0 0.00 0.09 0.03 27 978.2
20260507233656 64 340 2.0 7.0 0.00 0.09 0.03 27 978.3
20260507233155 65 343 2.0 6.0 0.00 0.10 0.03 26 978.5
20260507232655 65 321 2.0 7.0 0.00 0.11 0.03 27 978.5
20260507232156 65 224 2.0 9.0 0.00 0.11 0.03 28 978.5
20260507231655 66 328 2.0 9.0 0.00 0.12 0.03 28 978.5
20260507231159 66 309 1.0 6.0 0.00 0.13 0.03 28 978.6
20260507231155 66 7 1.0 7.0 0.00 0.12 0.03 27 978.5
20260507230156 65 318 1.0 6.0 0.00 0.14 0.03 29 978.6
20260507225700 65 314 1.0 7.0 0.00 0.15 0.03 29 978.5
20260507225656 65 326 1.0 6.0 0.00 0.14 0.03 27 978.6
20260507224659 64 11 2.0 8.0 0.00 0.15 0.03 28 978.6
20260507224655 64 345 2.0 8.0 0.00 0.15 0.03 31 978.5
20260507223655 64 339 3.0 9.0 0.00 0.16 0.03 29 978.6
20260507223153 64 299 4.0 9.0 0.00 0.17 0.03 27 978.6
20260507222654 65 340 3.0 9.0 0.00 0.17 0.03 28 978.6
20260507222153 66 309 2.0 8.0 0.00 0.18 0.03 27 978.6
20260507221653 66 305 3.0 10.0 0.00 0.18 0.03 26 978.7
20260507221153 66 48 3.0 10.0 0.00 0.19 0.03 28 978.8
20260507220658 66 341 4.0 13.0 0.00 0.21 0.03 29 979.1
20260507220654 66 296 3.0 9.0 0.00 0.20 0.03 26 978.8
20260507220152 66 88 3.0 9.0 0.00 0.21 0.03 27 979.1
20260507215153 65 195 3.0 13.0 0.00 0.22 0.03 27 979.2
20260507214653 66 224 3.0 11.0 0.00 0.22 0.03 27 979.2
20260507214156 64 11 4.0 11.0 0.00 0.23 0.03 30 979.3
20260507214152 65 342 4.0 11.0 0.00 0.23 0.03 30 979.2